May 18, 2022

Time Code Weather Temp. Visibility Clouds Wind METAR/SPECI
10:50 am
V
73 °F 6¼ mi+ - 090°   090° 3 kt METAR EDDS 180850Z AUTO 09003KT 030V160 CAVOK 23/13 Q1024 NOSIG
10:20 am
V
72 °F 6¼ mi+ - 060°   060° 3 kt METAR EDDS 180820Z AUTO 06003KT 010V110 CAVOK 22/12 Q1024
9:50 am
V
70 °F 6¼ mi+ - Var   Var 2 kt METAR EDDS 180750Z AUTO VRB02KT CAVOK 21/13 Q1024 NOSIG
9:20 am
V
68 °F 6¼ mi+ - Var   Var 2 kt METAR EDDS 180720Z AUTO VRB02KT CAVOK 20/13 Q1024 NOSIG
8:50 am
V
68 °F 6¼ mi+ - 070°   070° 3 kt METAR EDDS 180650Z AUTO 07003KT 030V140 CAVOK 20/12 Q1024 NOSIG
8:20 am
V
66 °F 6¼ mi+ - Var   Var 2 kt METAR EDDS 180620Z AUTO VRB02KT CAVOK 19/12 Q1024 NOSIG
7:50 am
V
63 °F 6¼ mi+ - Var   Var 1 kt METAR EDDS 180550Z AUTO VRB01KT CAVOK 17/12 Q1023 NOSIG
7:20 am
V
59 °F 6¼ mi+ - Var   Var 2 kt METAR EDDS 180520Z AUTO VRB02KT CAVOK 15/12 Q1023 NOSIG
6:50 am
V
59 °F 6¼ mi+ - Var   Var 1 kt METAR EDDS 180450Z AUTO VRB01KT CAVOK 15/11 Q1023 NOSIG
6:20 am
V
54 °F 6¼ mi+ - Var   Var 2 kt METAR EDDS 180420Z AUTO VRB02KT CAVOK 12/09 Q1023 NOSIG
5:50 am
V
52 °F 6¼ mi+ - Var   Var 2 kt METAR EDDS 180350Z AUTO VRB02KT CAVOK 11/09 Q1023
5:20 am
V
54 °F 6¼ mi+ - 260°   260° 3 kt METAR EDDS 180320Z AUTO 26003KT CAVOK 12/09 Q1022
4:50 am
V
54 °F 6¼ mi+ - Var   Var 2 kt METAR EDDS 180250Z AUTO VRB02KT CAVOK 12/09 Q1022
4:20 am
V
54 °F 6¼ mi+ - 290°   290° 3 kt METAR EDDS 180220Z AUTO 29003KT CAVOK 12/09 Q1022
3:50 am
V
54 °F 6¼ mi+ - 290°   290° 2 kt METAR EDDS 180150Z AUTO 29002KT CAVOK 12/10 Q1022
3:20 am
V
55 °F 6¼ mi+ - 360°   360° 2 kt METAR EDDS 180120Z AUTO 36002KT CAVOK 13/10 Q1022
2:50 am
V
55 °F 6¼ mi+ - 310°   310° 1 kt METAR EDDS 180050Z AUTO 31001KT CAVOK 13/10 Q1022
2:20 am
V
57 °F 6¼ mi+ - Var   Var 1 kt METAR EDDS 180020Z AUTO VRB01KT CAVOK 14/11 Q1022
1:50 am
V
57 °F 6¼ mi+ - Var   Var 1 kt METAR EDDS 172350Z AUTO VRB01KT CAVOK 14/11 Q1022
1:20 am
V
59 °F 6¼ mi+ - 040°   040° 3 kt METAR EDDS 172320Z AUTO 04003KT 350V050 CAVOK 15/11 Q1022
12:50 am
V
59 °F 6¼ mi+ - 030°   030° 2 kt METAR EDDS 172250Z AUTO 03002KT CAVOK 15/10 Q1022
12:20 am
V
61 °F 6¼ mi+ - Var   Var 1 kt METAR EDDS 172220Z AUTO VRB01KT CAVOK 16/11 Q1022

May 17, 2022

Time Code Weather Temp. Visibility Clouds Wind METAR/SPECI
11:50 pm
V
61 °F 6¼ mi+ - 060°   060° 1 kt METAR EDDS 172150Z AUTO 06001KT CAVOK 16/11 Q1022
11:20 pm
V
63 °F 6¼ mi+ - Var   Var 1 kt METAR EDDS 172120Z AUTO VRB01KT CAVOK 17/11 Q1021
10:50 pm
V
64 °F 6¼ mi+ - Var   Var 2 kt METAR EDDS 172050Z AUTO VRB02KT CAVOK 18/11 Q1021
10:20 pm
V
66 °F 6¼ mi+ - 040°   040° 2 kt METAR EDDS 172020Z AUTO 04002KT CAVOK 19/11 Q1021
9:50 pm
V
64 °F 6¼ mi+ - 040°   040° 3 kt METAR EDDS 171950Z AUTO 04003KT CAVOK 18/11 Q1021 NOSIG
9:20 pm
V
66 °F 6¼ mi+ - 070°   070° 2 kt METAR EDDS 171920Z AUTO 07002KT CAVOK 19/11 Q1021 NOSIG
8:50 pm
V
70 °F 6¼ mi+ - 090°   090° 3 kt METAR EDDS 171850Z AUTO 09003KT CAVOK 21/12 Q1020 NOSIG
8:20 pm
V
72 °F 6¼ mi+ - 090°   090° 3 kt METAR EDDS 171820Z AUTO 09003KT CAVOK 22/11 Q1020 NOSIG
7:50 pm
V
72 °F 6¼ mi+ - 090°   090° 4 kt METAR EDDS 171750Z AUTO 09004KT CAVOK 22/11 Q1020 NOSIG
7:20 pm
V
73 °F 6¼ mi+ - 050°   050° 4 kt METAR EDDS 171720Z AUTO 05004KT 350V080 CAVOK 23/10 Q1020 NOSIG
6:50 pm
V
73 °F 6¼ mi+ - 070°   070° 4 kt METAR EDDS 171650Z AUTO 07004KT CAVOK 23/11 Q1020 NOSIG
6:20 pm
V
75 °F 6¼ mi+ - 070°   070° 6 kt METAR EDDS 171620Z AUTO 07006KT 030V110 CAVOK 24/11 Q1020
5:50 pm
V
75 °F 6¼ mi+ - Var   Var 3 kt METAR EDDS 171550Z AUTO VRB03KT CAVOK 24/10 Q1020 NOSIG
5:20 pm
V
75 °F 6¼ mi+ - 090°   090° 7 kt METAR EDDS 171520Z AUTO 09007KT 060V130 CAVOK 24/11 Q1020 NOSIG
4:50 pm
V
75 °F 6¼ mi+ - Var   Var 4 kt METAR EDDS 171450Z AUTO VRB04KT CAVOK 24/09 Q1020 NOSIG
4:20 pm
V
75 °F 6¼ mi+ - Var   Var 4 kt METAR EDDS 171420Z AUTO VRB04KT CAVOK 24/10 Q1020 NOSIG
3:50 pm
V
75 °F 6¼ mi+ - 050°   050° 5 kt METAR EDDS 171350Z AUTO 05005KT 010V100 CAVOK 24/10 Q1021 NOSIG
3:20 pm
V
75 °F 6¼ mi+ - Var   Var 4 kt METAR EDDS 171320Z AUTO VRB04KT CAVOK 24/11 Q1021 NOSIG
2:50 pm
V
75 °F 6¼ mi+ - 360°   360° 5 kt METAR EDDS 171250Z AUTO 36005KT 280V050 CAVOK 24/11 Q1021 NOSIG
2:20 pm
V
73 °F 6¼ mi+ - 080°   080° 3 kt METAR EDDS 171220Z AUTO 08003KT 010V180 CAVOK 23/11 Q1022 NOSIG
1:50 pm
V
73 °F 6¼ mi+ - 060°   060° 5 kt METAR EDDS 171150Z AUTO 06005KT 010V150 CAVOK 23/12 Q1022 NOSIG
1:20 pm
V
72 °F 6¼ mi+ - 050°   050° 4 kt METAR EDDS 171120Z AUTO 05004KT 330V130 9999 FEW045 22/12 Q1022 NOSIG
12:50 pm
V
72 °F 6¼ mi+ - 100°   100° 4 kt METAR EDDS 171050Z AUTO 10004KT 060V130 9999 FEW042 22/11 Q1022 NOSIG
12:20 pm
V
72 °F 6¼ mi+ - Var   Var 3 kt METAR EDDS 171020Z AUTO VRB03KT 9999 FEW039 22/12 Q1023 NOSIG
11:50 am
V
70 °F 6¼ mi+ - Var   Var 3 kt METAR EDDS 170950Z AUTO VRB03KT CAVOK 21/11 Q1023 NOSIG
11:20 am
V
70 °F 6¼ mi+ - Var   Var 2 kt METAR EDDS 170920Z AUTO VRB02KT 9999 ///////// 21/12 Q1023 RE// NOSIG
10:50 am
L
70 °F 0 mi - Var   Var 3 kt METAR EDDS 170850Z AUTO VRB03KT //// R07/P2000N ////// 21/13 Q1023 RE//
10:20 am
V
68 °F 6¼ mi+ - 120°   120° 3 kt METAR EDDS 170820Z 12003KT 050V190 9999 FEW028 20/13 Q1023 NOSIG
9:50 am
V
66 °F 6¼ mi+ - 090°   090° 3 kt METAR EDDS 170750Z 09003KT 040V160 9999 FEW024 19/13 Q1023 NOSIG
9:20 am
V
66 °F 6¼ mi+ - Var   Var 2 kt METAR EDDS 170720Z VRB02KT 9999 FEW022 19/13 Q1023 NOSIG
8:50 am
V
63 °F 6¼ mi+ - 090°   090° 3 kt METAR EDDS 170650Z 09003KT 050V130 9999 FEW020 17/13 Q1023 NOSIG
8:20 am
V
61 °F 6¼ mi+ - Var   Var 2 kt METAR EDDS 170620Z VRB02KT 9999 FEW020 16/12 Q1023 NOSIG
7:50 am
V
57 °F 6¼ mi+ - Var   Var 2 kt METAR EDDS 170550Z VRB02KT 9999 FEW020 14/11 Q1023 NOSIG
7:20 am
V
55 °F 6¼ mi+ - Var   Var 2 kt METAR EDDS 170520Z VRB02KT 9999 FEW020 13/11 Q1022 NOSIG
6:50 am
V
57 °F 6¼ mi+ - Var   Var 1 kt METAR EDDS 170450Z VRB01KT 9999 FEW020 14/11 Q1022 NOSIG
6:20 am
V
52 °F 6¼ mi+ - 070°   070° 1 kt METAR EDDS 170420Z 07001KT 9999 FEW020 11/10 Q1022 NOSIG
5:50 am
V
50 °F 6¼ mi+ - Var   Var 1 kt METAR EDDS 170350Z VRB01KT 9999 FEW020 10/09 Q1022 NOSIG
5:20 am
V
50 °F 6¼ mi+ - Var   Var 1 kt METAR EDDS 170320Z VRB01KT 9999 FEW020 10/09 Q1022
4:50 am
V
50 °F 6¼ mi+ - Var   000° 0 kt METAR EDDS 170250Z 00000KT CAVOK 10/10 Q1022
4:20 am
V
52 °F 6¼ mi+ - Var   Var 1 kt METAR EDDS 170220Z VRB01KT CAVOK 11/09 Q1021
3:50 am
V
52 °F 6¼ mi+ - 110°   110° 1 kt METAR EDDS 170150Z 11001KT CAVOK 11/10 Q1021
3:20 am
V
55 °F 6¼ mi+ - Var   Var 2 kt METAR EDDS 170120Z VRB02KT CAVOK 13/10 Q1021
2:50 am
V
55 °F 6¼ mi+ - Var   Var 2 kt METAR EDDS 170050Z VRB02KT CAVOK 13/10 Q1022
2:20 am
V
55 °F 6¼ mi+ - Var   Var 1 kt METAR EDDS 170020Z VRB01KT CAVOK 13/11 Q1022
1:50 am
V
55 °F 6¼ mi+ - Var   Var 2 kt METAR EDDS 162350Z VRB02KT CAVOK 13/11 Q1022
1:20 am
V
57 °F 6¼ mi+ - 240°   240° 4 kt METAR EDDS 162320Z 24004KT 210V270 CAVOK 14/11 Q1021
12:50 am
V
57 °F 6¼ mi+ - 260°   260° 4 kt METAR EDDS 162250Z 26004KT CAVOK 14/11 Q1022
12:20 am
V
57 °F 6¼ mi+ - 240°   240° 5 kt METAR EDDS 162220Z 24005KT CAVOK 14/11 Q1021

May 16, 2022

Time Code Weather Temp. Visibility Clouds Wind METAR/SPECI
11:50 pm
V
57 °F 6¼ mi+ - 260°   260° 5 kt METAR EDDS 162150Z 26005KT CAVOK 14/11 Q1022
11:20 pm
V
59 °F 6¼ mi+ - 240°   240° 3 kt METAR EDDS 162120Z 24003KT CAVOK 15/11 Q1022
10:50 pm
V
61 °F 6¼ mi+ - 260°   260° 5 kt METAR EDDS 162050Z 26005KT CAVOK 16/11 Q1022
10:20 pm
V
61 °F 6¼ mi+ - 280°   280° 4 kt METAR EDDS 162020Z 28004KT CAVOK 16/11 Q1021
9:50 pm
V
61 °F 6¼ mi+ - 280°   280° 6 kt METAR EDDS 161950Z 28006KT CAVOK 16/11 Q1021 NOSIG
9:20 pm
V
61 °F 6¼ mi+ - 290°   290° 7 kt METAR EDDS 161920Z 29007KT CAVOK 16/11 Q1021 NOSIG
8:50 pm
V
66 °F 6¼ mi+ - 280°   280° 6 kt METAR EDDS 161850Z 28006KT 9999 FEW032 19/10 Q1021 NOSIG
8:20 pm
V
66 °F 6¼ mi+ - 280°   280° 10 kt METAR EDDS 161820Z 28010KT 9999 FEW032 19/11 Q1020 NOSIG
7:50 pm
V
68 °F 6¼ mi+ - 270°   270° 13 kt METAR EDDS 161750Z 27013KT 9999 FEW032 20/12 Q1020 NOSIG
7:20 pm
V
68 °F 6¼ mi+ - 280°   280° 14 kt METAR EDDS 161720Z 28014KT 9999 FEW032 20/12 Q1019 NOSIG
6:50 pm
V
68 °F 6¼ mi+ - 260°   260° 16 kt METAR EDDS 161650Z 26016KT 230V290 9999 FEW038 20/12 Q1019 NOSIG
6:20 pm
V
70 °F 6¼ mi+ - 310°   310° 11 kt METAR EDDS 161620Z 31011KT 280V340 9999 SCT031 21/14 Q1019 NOSIG
5:50 pm
V
70 °F 6¼ mi+ - 320°   320° 9 kt METAR EDDS 161550Z 32009KT 280V340 9999 SCT035 SCT047 21/14 Q1019 NOSIG
5:20 pm
V
72 °F 6¼ mi+ - 260°   260° 6 kt METAR EDDS 161520Z 26006KT 210V290 9999 SCT031 22/14 Q1019 NOSIG
4:50 pm
V
70 °F 6¼ mi+ - 260°   260° 9 kt METAR EDDS 161450Z 26009KT 180V300 9999 FEW027 21/14 Q1019 NOSIG
4:20 pm
V
70 °F 6¼ mi+ - 240°   240° 8 kt METAR EDDS 161420Z 24008KT 130V280 9999 FEW022 21/15 Q1019 NOSIG
3:50 pm
V
68 °F 6¼ mi+ - 250°   250° 5 kt METAR EDDS 161350Z 25005KT 190V290 9999 FEW022 20/15 Q1020 NOSIG
3:20 pm
V
66 °F 6¼ mi+ - 260°   260° 4 kt METAR EDDS 161320Z 26004KT 210V310 9999 FEW025CB 19/13 Q1020 NOSIG
2:50 pm
V
63 °F 6¼ mi+ - 260°   260° 8 kt METAR EDDS 161250Z 26008KT 220V290 9999 -SHRA FEW030CB 17/14 Q1020 NOSIG
2:20 pm
V
63 °F 6¼ mi+ - 260°   260° 9 kt METAR EDDS 161220Z 26009KT 230V300 9999 -SHRA SCT030CB SCT049 17/13 Q1020 TEMPO TSRA
1:50 pm
V
66 °F 6¼ mi+ 4,900 ft 250°   250° 16 kt METAR EDDS 161150Z 25016KT 9999 -SHRA SCT030CB BKN049 19/11 Q1020 TEMPO 26015G25KT TSRA
1:20 pm
V
72 °F 6¼ mi+ - 280°   280° 13 kt METAR EDDS 161120Z 28013KT 9999 -SHRA SCT046CB 22/12 Q1019 TEMPO 26015G25KT TSRA
12:50 pm
V
73 °F 6¼ mi+ - 280°   280° 15 kt METAR EDDS 161050Z 28015KT 9999 VCTS SCT046CB 23/12 Q1019 TEMPO 26015G25KT TSRA
12:20 pm
V
73 °F 6¼ mi+ - 260°   260° 10 kt METAR EDDS 161020Z 26010KT 230V290 9999 SCT046TCU 23/13 Q1019 TEMPO SHRA
11:50 am
V
73 °F 6¼ mi+ - 250°   250° 5 kt METAR EDDS 160950Z 25005KT 140V300 9999 SCT042 23/13 Q1019 NOSIG
11:20 am
V
73 °F 6¼ mi+ - Var   Var 3 kt METAR EDDS 160920Z VRB03KT 9999 SCT048TCU 23/13 Q1019 NOSIG
10:50 am
V
72 °F 6¼ mi+ - 270°   270° 3 kt METAR EDDS 160850Z 27003KT 230V310 9999 VCSH SCT048TCU 22/13 Q1019 TEMPO SHRA
Older data

Download our app

Easy access to all aviation weather on your mobile phone and tablet.
With many features not available on the website, like offline support and a personal airport list.